SL-8 R/B

Satellite information

Favourite Embed

Satellite Type and Status

ROCKET BODYIN ORBIT

Key statistics

Satellite SL-8 R/B at a glance.

Uptime

15714

Days in orbit

Revolutions

≈ 13.7

Per day

Orbit

LEO

Low Earth Orbit

Inclination

82.9

Latest

Satellite identification and parameters

Extended collection of information and parameters for SL-8 R/B.

Object identification

Identified? True

Debris? False

Object name: SL-8 R/B

International designator: 1982-066B

Object number (NORAD): 13302

Object ID (CCSDS): 13302

Country: COMMONWEALTH OF INDEPENDENT STATES (CIS)

Current information (Y/N): Y

RCS size: LARGE

Orbital parameters

Period: 105.071 minutes

Inclination: 82.93 deg

SMA: 7375.916 km

Apoapsis: 1026.706 km

Periapsis: 968.855 km

RAAN: 237.6553 deg

Eccentricy: 0.0039216

Argument of periapsis: 12.9762 deg

Mean anomaly: 98.3603 deg

Mean motion: 13.70499376 rev/day

Mean motion (dot): 0.00000012 rev/day2

B* drag term: -0.0000036099 1/REarth

Two-line elements (TLE)

Creation date: July 6, 2025, 6:05 p.m.

Reference frame: TEME

Reference center: EARTH

Epoch: July 6, 2025, 3:26 p.m. UTC

TLE line 0: 0 SL-8 R/B

TLE line 1: 1 13302U 82066B 25187.64320961 .00000012 00000-0 -36099-5 0 9991

TLE line 2: 2 13302 82.9300 237.6553 0039216 12.9762 98.3603 13.70499376151063

Live tracking on map

Real-time ground track for satellite SL-8 R/B.

In-orbit conjunctions

A list of the most updated potential collisions computed for object SL-8 R/B.

Target Orbit TCA Probability of collision Miss distance Type
COSMOS 1736 FUEL CORE LEO 2024-11-12 15:38:54 0.000173118 449.0 (m) PAYLOAD
THORAD AGENA D DEB SSO 2024-11-01 16:05:53 0.0002606174 250.0 (m) DEBRIS
FENGYUN 1C DEB SSO 2024-10-02 20:09:11 0.0002598276 216.0 (m) DEBRIS

Associated space launch

Civilian navigation satellite equivalent to the purely military Parus

SL-8 R/B was lifted into orbit during the mission ‘Kosmos-3M | Nadezhda 1’, on board a Kosmos-3M space rocket.

The launch took place on June 29, 1982, 9:45 p.m. from 132/1 (132L).

For more information about the launch, click the button.

Launch to space Kosmos-3M | Nadezhda 1
Kosmos-3M | Nadezhda 1

Agency: N/A

Status: Launch Successful

Launch date: June 29, 1982, 9:45 p.m. UTC

Rocket: Kosmos-3M

Launch pad: 132/1 (132L)

Location: Plesetsk Cosmodrome, Russian Federation

...

Latest news about this satellite

There are no fresh news available about this satellite. Check back as we update our databases every day.


Newsletter sign-up

Weekly statistics, charts and insights to help you stay on top of the space industry.